QPF
0.00 0.00 0.00 0.00 0.00 0.00 0.00 0.00 0.00 0.00 0.00 0.01 0.01 0.01 0.01 0.02 0.01 0.03 0.04 0.06 0.08 0.08 0.08 0.07 0.08 0.05 0.05 0.07 0.18 0.15 0.08 0.09 0.09 0.09 0.11 0.13 0.14 0.14 0.10 0.09 0.08 0.07 0.07
0.00 0.00 0.00 0.00 0.00 0.00 0.00 0.00 0.00 0.00 0.00 0.00 0.01 0.01 0.01 0.01 0.01 0.02 0.03 0.04 0.06 0.06 0.06 0.08 0.10 0.07 0.05 0.06 0.13 0.14 0.08 0.09 0.08 0.09 0.09 0.13 0.14 0.12 0.09 0.10 0.10 0.07 0.06
0.00 0.00 0.00 0.00 0.00 0.00 0.00 0.00 0.00 0.00 0.00 0.00 0.00 0.00 0.01 0.01 0.01 0.02 0.04 0.04 0.04 0.04 0.05 0.07 0.09 0.09 0.07 0.07 0.10 0.15 0.10 0.09 0.08 0.08 0.08 0.10 0.10 0.09 0.07 0.06 0.09 0.08 0.05
0.00 0.00 0.00 0.00 0.00 0.00 0.00 0.00 0.00 0.00 0.00 0.00 0.00 0.00 0.01 0.01 0.01 0.01 0.02 0.03 0.03 0.03 0.05 0.07 0.07 0.08 0.09 0.09 0.11 0.16 0.13 0.11 0.08 0.06 0.06 0.07 0.07 0.07 0.05 0.04 0.05 0.07 0.05
0.00 0.00 0.00 0.00 0.00 0.00 0.00 0.00 0.00 0.00 0.00 0.00 0.00 0.00 0.01 0.01 0.01 0.01 0.02 0.03 0.04 0.05 0.05 0.06 0.05 0.05 0.07 0.10 0.12 0.13 0.12 0.11 0.07 0.06 0.05 0.05 0.06 0.06 0.05 0.04 0.05 0.06 0.07
0.00 0.00 0.00 0.00 0.00 0.00 0.00 0.00 0.00 0.00 0.00 0.00 0.00 0.00 0.01 0.01 0.01 0.01 0.01 0.03 0.04 0.06 0.06 0.06 0.04 0.04 0.05 0.09 0.12 0.14 0.12 0.10 0.07 0.06 0.05 0.04 0.05 0.05 0.05 0.04 0.04 0.05 0.07
0.00 0.00 0.00 0.00 0.00 0.00 0.00 0.00 0.00 0.00 0.00 0.00 0.00 0.00 0.00 0.01 0.01 0.01 0.01 0.02 0.05 0.09 0.11 0.10 0.07 0.05 0.04 0.05 0.08 0.12 0.13 0.10 0.08 0.07 0.06 0.05 0.04 0.04 0.04 0.04 0.03 0.04 0.05
0.00 0.00 0.00 0.00 0.00 0.00 0.00 0.00 0.00 0.00 0.00 0.00 0.01 0.01 0.01 0.01 0.01 0.01 0.02 0.02 0.04 0.11 0.15 0.14 0.12 0.07 0.05 0.04 0.04 0.07 0.09 0.10 0.11 0.11 0.09 0.07 0.05 0.04 0.04 0.04 0.03 0.03 0.03
0.00 0.00 0.00 0.00 0.00 0.00 0.00 0.00 0.00 0.00 0.00 0.01 0.01 0.01 0.01 0.00 0.00 0.01 0.02 0.04 0.05 0.11 0.15 0.16 0.14 0.11 0.07 0.05 0.05 0.04 0.04 0.06 0.11 0.15 0.13 0.09 0.06 0.06 0.05 0.04 0.03 0.02 0.02
0.00 0.00 0.00 0.00 0.00 0.00 0.00 0.00 0.00 0.00 0.00 0.01 0.01 0.00 0.01 0.01 0.00 0.01 0.02 0.03 0.05 0.09 0.13 0.16 0.13 0.11 0.08 0.07 0.06 0.06 0.04 0.04 0.08 0.15 0.16 0.12 0.09 0.06 0.05 0.05 0.04 0.04 0.02
0.00 0.00 0.00 0.00 0.00 0.00 0.00 0.00 0.00 0.00 0.00 0.01 0.01 0.00 0.01 0.01 0.01 0.01 0.01 0.02 0.04 0.06 0.09 0.14 0.13 0.12 0.10 0.09 0.07 0.06 0.06 0.05 0.07 0.12 0.16 0.17 0.14 0.10 0.07 0.05 0.04 0.05 0.04
0.00 0.00 0.00 0.00 0.00 0.00 0.00 0.00 0.00 0.00 0.00 0.00 0.01 0.01 0.02 0.01 0.01 0.00 0.00 0.01 0.02 0.04 0.06 0.09 0.10 0.10 0.11 0.11 0.09 0.07 0.05 0.04 0.05 0.07 0.11 0.15 0.15 0.14 0.11 0.07 0.05 0.05 0.06
0.00 0.00 0.00 0.00 0.00 0.00 0.00 0.00 0.00 0.00 0.00 0.00 0.00 0.01 0.01 0.01 0.01 0.01 0.01 0.01 0.02 0.03 0.04 0.06 0.07 0.06 0.06 0.10 0.09 0.08 0.05 0.04 0.04 0.04 0.05 0.09 0.12 0.12 0.12 0.11 0.08 0.08 0.08
0.00 0.00 0.01 0.00 0.01 0.01 0.01 0.00 0.00 0.00 0.00 0.00 0.00 0.01 0.01 0.01 0.01 0.01 0.01 0.01 0.01 0.02 0.03 0.05 0.06 0.07 0.06 0.05 0.09 0.08 0.06 0.05 0.05 0.03 0.04 0.04 0.06 0.09 0.10 0.12 0.12 0.11 0.13
0.00 0.00 0.00 0.00 0.01 0.01 0.01 0.01 0.00 0.00 0.00 0.00 0.01 0.00 0.01 0.02 0.02 0.01 0.01 0.01 0.01 0.01 0.01 0.02 0.04 0.07 0.06 0.05 0.06 0.06 0.06 0.06 0.06 0.04 0.03 0.04 0.04 0.05 0.07 0.08 0.08 0.08 0.08
0.00 0.01 0.01 0.01 0.01 0.01 0.01 0.01 0.00 0.00 0.00 0.00 0.01 0.01 0.01 0.01 0.01 0.02 0.02 0.01 0.01 0.01 0.01 0.01 0.02 0.05 0.06 0.05 0.05 0.04 0.05 0.07 0.07 0.05 0.04 0.03 0.03 0.03 0.05 0.06 0.06 0.06 0.05
0.00 0.00 0.01 0.01 0.01 0.01 0.01 0.01 0.00 0.00 0.00 0.00 0.01 0.01 0.01 0.00 0.00 0.01 0.01 0.02 0.02 0.01 0.01 0.02 0.03 0.05 0.05 0.05 0.04 0.04 0.04 0.05 0.06 0.05 0.04 0.04 0.03 0.03 0.04 0.05 0.05 0.05 0.03
0.00 0.00 0.01 0.01 0.02 0.01 0.01 0.01 0.01 0.01 0.00 0.00 0.00 0.00 0.00 0.01 0.01 0.01 0.01 0.02 0.03 0.03 0.02 0.02 0.04 0.05 0.04 0.04 0.05 0.07 0.07 0.04 0.05 0.06 0.05 0.05 0.06 0.04 0.04 0.04 0.05 0.04 0.03
0.00 0.00 0.01 0.01 0.02 0.02 0.02 0.02 0.02 0.02 0.01 0.00 0.00 0.01 0.00 0.01 0.00 0.01 0.02 0.03 0.02 0.03 0.03 0.02 0.04 0.06 0.05 0.04 0.06 0.07 0.08 0.06 0.05 0.07 0.07 0.06 0.06 0.05 0.04 0.04 0.05 0.05 0.03
0.00 0.00 0.00 0.01 0.02 0.03 0.04 0.05 0.04 0.02 0.01 0.00 0.01 0.01 0.00 0.00 0.01 0.01 0.03 0.03 0.04 0.04 0.03 0.03 0.04 0.06 0.06 0.04 0.06 0.05 0.06 0.06 0.05 0.08 0.08 0.05 0.06 0.06 0.05 0.04 0.03 0.03 0.03
0.00 0.00 0.00 0.01 0.02 0.04 0.08 0.09 0.07 0.04 0.02 0.01 0.02 0.02 0.01 0.01 0.01 0.01 0.01 0.02 0.04 0.05 0.04 0.04 0.04 0.04 0.06 0.06 0.04 0.05 0.06 0.07 0.07 0.07 0.08 0.07 0.05 0.05 0.04 0.03 0.03 0.03 0.03
0.00 0.00 0.00 0.00 0.01 0.05 0.09 0.09 0.07 0.05 0.03 0.02 0.02 0.02 0.01 0.01 0.00 0.00 0.00 0.01 0.02 0.03 0.04 0.03 0.03 0.04 0.04 0.05 0.04 0.06 0.05 0.05 0.04 0.04 0.06 0.07 0.06 0.05 0.04 0.03 0.03 0.03 0.03
0.00 0.00 0.00 0.00 0.01 0.01 0.05 0.08 0.07 0.05 0.04 0.02 0.01 0.00 0.00 0.00 0.00 0.00 0.00 0.01 0.01 0.02 0.02 0.02 0.03 0.03 0.03 0.02 0.04 0.04 0.04 0.05 0.04 0.05 0.07 0.08 0.08 0.06 0.06 0.05 0.04 0.03 0.03
0.00 0.00 0.00 0.00 0.00 0.01 0.03 0.06 0.08 0.05 0.04 0.03 0.01 0.00 0.00 0.00 0.00 0.00 0.00 0.01 0.01 0.01 0.03 0.02 0.02 0.03 0.04 0.03 0.03 0.04 0.05 0.05 0.05 0.06 0.08 0.10 0.08 0.06 0.05 0.05 0.05 0.05 0.04
0.00 0.00 0.00 0.00 0.00 0.00 0.01 0.05 0.08 0.07 0.05 0.03 0.01 0.01 0.01 0.00 0.01 0.01 0.01 0.01 0.01 0.01 0.02 0.02 0.02 0.03 0.04 0.05 0.06 0.06 0.07 0.06 0.05 0.05 0.06 0.07 0.07 0.06 0.04 0.04 0.03 0.04 0.05
0.00 0.00 0.00 0.00 0.00 0.00 0.01 0.03 0.06 0.07 0.05 0.03 0.01 0.01 0.01 0.01 0.01 0.01 0.02 0.02 0.02 0.01 0.01 0.01 0.02 0.03 0.04 0.06 0.06 0.05 0.07 0.07 0.07 0.06 0.05 0.04 0.05 0.05 0.04 0.04 0.03 0.03 0.04
MSLP
1014.78 1014.73 1014.60 1014.40 1014.13 1013.83 1013.51 1013.20 1012.89 1012.59 1012.29 1011.96 1011.62 1011.26 1010.90 1010.55 1010.25 1010.03 1009.90 1009.87 1009.93 1010.08 1010.28 1010.49 1010.69 1010.86 1010.97 1011.03 1011.04 1011.04 1011.06 1011.12 1011.25 1011.46 1011.76 1012.13 1012.54 1012.97 1013.40 1013.80 1014.17 1014.50 1014.81
1014.94 1014.89 1014.77 1014.59 1014.36 1014.08 1013.78 1013.47 1013.14 1012.81 1012.46 1012.11 1011.74 1011.36 1011.00 1010.66 1010.36 1010.13 1009.99 1009.94 1009.97 1010.08 1010.25 1010.45 1010.66 1010.86 1011.02 1011.15 1011.24 1011.31 1011.39 1011.49 1011.64 1011.86 1012.14 1012.48 1012.87 1013.28 1013.68 1014.07 1014.43 1014.75 1015.06
1015.07 1015.02 1014.92 1014.78 1014.60 1014.37 1014.11 1013.81 1013.49 1013.13 1012.76 1012.38 1011.98 1011.59 1011.22 1010.87 1010.58 1010.34 1010.17 1010.07 1010.05 1010.11 1010.22 1010.38 1010.57 1010.76 1010.95 1011.12 1011.26 1011.39 1011.52 1011.66 1011.84 1012.08 1012.36 1012.71 1013.09 1013.50 1013.90 1014.29 1014.65 1014.98 1015.29
1015.15 1015.10 1015.04 1014.95 1014.83 1014.67 1014.46 1014.21 1013.90 1013.54 1013.16 1012.75 1012.34 1011.93 1011.55 1011.20 1010.89 1010.63 1010.43 1010.28 1010.20 1010.18 1010.22 1010.32 1010.46 1010.63 1010.82 1011.01 1011.19 1011.37 1011.55 1011.74 1011.96 1012.22 1012.53 1012.89 1013.28 1013.69 1014.10 1014.49 1014.86 1015.19 1015.49
1015.16 1015.12 1015.09 1015.06 1015.02 1014.94 1014.80 1014.60 1014.33 1013.99 1013.60 1013.19 1012.77 1012.36 1011.98 1011.62 1011.31 1011.03 1010.78 1010.58 1010.43 1010.33 1010.29 1010.31 1010.39 1010.53 1010.70 1010.90 1011.12 1011.34 1011.57 1011.82 1012.08 1012.38 1012.71 1013.08 1013.48 1013.89 1014.29 1014.68 1015.04 1015.36 1015.65
1015.11 1015.06 1015.06 1015.09 1015.13 1015.13 1015.07 1014.93 1014.71 1014.40 1014.04 1013.64 1013.23 1012.83 1012.46 1012.12 1011.80 1011.51 1011.24 1010.98 1010.76 1010.58 1010.45 1010.39 1010.41 1010.50 1010.65 1010.86 1011.10 1011.37 1011.65 1011.94 1012.25 1012.58 1012.94 1013.31 1013.70 1014.10 1014.49 1014.85 1015.18 1015.48 1015.75
1014.98 1014.92 1014.95 1015.03 1015.13 1015.21 1015.23 1015.16 1015.00 1014.74 1014.42 1014.05 1013.68 1013.32 1012.98 1012.67 1012.37 1012.08 1011.79 1011.50 1011.21 1010.95 1010.73 1010.59 1010.53 1010.57 1010.70 1010.90 1011.16 1011.46 1011.79 1012.12 1012.47 1012.83 1013.19 1013.57 1013.94 1014.31 1014.66 1014.99 1015.28 1015.55 1015.79
1014.81 1014.74 1014.77 1014.89 1015.04 1015.18 1015.27 1015.27 1015.16 1014.96 1014.69 1014.39 1014.07 1013.77 1013.50 1013.24 1012.99 1012.72 1012.43 1012.11 1011.77 1011.44 1011.14 1010.91 1010.78 1010.75 1010.83 1011.02 1011.28 1011.59 1011.94 1012.31 1012.68 1013.05 1013.42 1013.78 1014.13 1014.46 1014.78 1015.06 1015.32 1015.55 1015.77
1014.65 1014.55 1014.58 1014.70 1014.88 1015.06 1015.19 1015.24 1015.19 1015.05 1014.85 1014.61 1014.38 1014.16 1013.97 1013.79 1013.60 1013.38 1013.10 1012.77 1012.40 1012.01 1011.64 1011.32 1011.10 1011.00 1011.02 1011.16 1011.39 1011.70 1012.05 1012.42 1012.80 1013.17 1013.53 1013.88 1014.20 1014.51 1014.78 1015.04 1015.26 1015.47 1015.67
1014.57 1014.43 1014.42 1014.53 1014.71 1014.90 1015.05 1015.12 1015.11 1015.02 1014.88 1014.72 1014.57 1014.45 1014.35 1014.26 1014.15 1013.98 1013.75 1013.42 1013.03 1012.59 1012.16 1011.76 1011.46 1011.27 1011.22 1011.29 1011.47 1011.73 1012.05 1012.40 1012.77 1013.13 1013.47 1013.80 1014.11 1014.39 1014.65 1014.89 1015.11 1015.31 1015.51
1014.60 1014.42 1014.37 1014.44 1014.59 1014.75 1014.89 1014.96 1014.96 1014.90 1014.80 1014.71 1014.63 1014.60 1014.59 1014.59 1014.56 1014.46 1014.27 1013.97 1013.57 1013.11 1012.63 1012.17 1011.79 1011.52 1011.38 1011.36 1011.47 1011.67 1011.93 1012.24 1012.56 1012.90 1013.22 1013.53 1013.83 1014.11 1014.38 1014.62 1014.85 1015.06 1015.27
1014.80 1014.56 1014.47 1014.48 1014.56 1014.67 1014.75 1014.79 1014.77 1014.71 1014.64 1014.58 1014.56 1014.59 1014.66 1014.73 1014.77 1014.73 1014.59 1014.32 1013.95 1013.48 1012.98 1012.49 1012.05 1011.71 1011.49 1011.39 1011.41 1011.53 1011.71 1011.95 1012.23 1012.51 1012.81 1013.11 1013.41 1013.70 1013.98 1014.25 1014.50 1014.74 1014.98
1015.15 1014.88 1014.72 1014.66 1014.66 1014.68 1014.69 1014.66 1014.59 1014.49 1014.41 1014.36 1014.36 1014.43 1014.54 1014.65 1014.74 1014.75 1014.65 1014.43 1014.08 1013.65 1013.16 1012.66 1012.21 1011.83 1011.56 1011.39 1011.33 1011.36 1011.47 1011.63 1011.83 1012.07 1012.33 1012.61 1012.91 1013.21 1013.52 1013.82 1014.11 1014.38 1014.64
1015.64 1015.33 1015.12 1014.98 1014.89 1014.81 1014.71 1014.59 1014.44 1014.29 1014.16 1014.08 1014.07 1014.13 1014.24 1014.37 1014.47 1014.51 1014.44 1014.26 1013.97 1013.58 1013.14 1012.69 1012.26 1011.89 1011.60 1011.40 1011.28 1011.24 1011.27 1011.35 1011.48 1011.66 1011.87 1012.13 1012.42 1012.73 1013.05 1013.38 1013.70 1014.00 1014.29
1016.22 1015.89 1015.62 1015.40 1015.21 1015.02 1014.82 1014.59 1014.35 1014.12 1013.93 1013.80 1013.74 1013.76 1013.83 1013.93 1014.02 1014.05 1014.00 1013.86 1013.62 1013.31 1012.95 1012.57 1012.22 1011.90 1011.64 1011.44 1011.30 1011.22 1011.18 1011.19 1011.25 1011.36 1011.53 1011.75 1012.01 1012.32 1012.65 1012.99 1013.32 1013.64 1013.93
1016.83 1016.48 1016.17 1015.88 1015.60 1015.31 1015.00 1014.67 1014.34 1014.03 1013.77 1013.57 1013.44 1013.39 1013.40 1013.43 1013.47 1013.46 1013.41 1013.29 1013.10 1012.86 1012.60 1012.33 1012.08 1011.86 1011.67 1011.52 1011.39 1011.30 1011.23 1011.19 1011.19 1011.24 1011.35 1011.53 1011.76 1012.04 1012.35 1012.68 1013.01 1013.32 1013.60
1017.40 1017.05 1016.70 1016.35 1016.00 1015.63 1015.24 1014.83 1014.43 1014.05 1013.72 1013.45 1013.25 1013.11 1013.03 1012.97 1012.93 1012.87 1012.77 1012.65 1012.49 1012.32 1012.15 1012.00 1011.86 1011.75 1011.66 1011.58 1011.51 1011.44 1011.37 1011.31 1011.27 1011.28 1011.35 1011.47 1011.66 1011.90 1012.18 1012.48 1012.78 1013.07 1013.33
1017.88 1017.53 1017.16 1016.78 1016.37 1015.95 1015.50 1015.05 1014.60 1014.18 1013.80 1013.48 1013.21 1012.99 1012.81 1012.65 1012.50 1012.35 1012.20 1012.04 1011.89 1011.75 1011.65 1011.58 1011.56 1011.56 1011.57 1011.58 1011.58 1011.55 1011.51 1011.46 1011.42 1011.41 1011.44 1011.54 1011.69 1011.89 1012.13 1012.39 1012.65 1012.90 1013.12
1018.24 1017.89 1017.51 1017.11 1016.69 1016.24 1015.77 1015.30 1014.84 1014.41 1014.01 1013.65 1013.33 1013.04 1012.77 1012.51 1012.25 1012.00 1011.75 1011.52 1011.34 1011.20 1011.12 1011.11 1011.15 1011.23 1011.33 1011.42 1011.50 1011.54 1011.55 1011.54 1011.52 1011.52 1011.56 1011.65 1011.78 1011.96 1012.16 1012.38 1012.60 1012.81 1012.99
1018.46 1018.12 1017.75 1017.34 1016.91 1016.47 1016.01 1015.55 1015.11 1014.69 1014.29 1013.92 1013.57 1013.23 1012.88 1012.53 1012.17 1011.80 1011.45 1011.13 1010.87 1010.69 1010.58 1010.57 1010.63 1010.75 1010.90 1011.05 1011.19 1011.30 1011.38 1011.43 1011.48 1011.53 1011.61 1011.72 1011.87 1012.04 1012.24 1012.43 1012.62 1012.79 1012.94
1018.55 1018.22 1017.85 1017.46 1017.04 1016.61 1016.18 1015.75 1015.34 1014.95 1014.58 1014.21 1013.85 1013.48 1013.08 1012.65 1012.20 1011.73 1011.27 1010.85 1010.49 1010.22 1010.04 1009.97 1010.00 1010.11 1010.26 1010.44 1010.63 1010.80 1010.95 1011.09 1011.22 1011.36 1011.52 1011.69 1011.89 1012.10 1012.31 1012.51 1012.68 1012.83 1012.96
1018.52 1018.20 1017.85 1017.47 1017.07 1016.66 1016.25 1015.86 1015.48 1015.12 1014.77 1014.43 1014.07 1013.68 1013.25 1012.77 1012.25 1011.70 1011.15 1010.62 1010.15 1009.77 1009.50 1009.33 1009.28 1009.32 1009.44 1009.62 1009.82 1010.04 1010.27 1010.50 1010.74 1010.99 1011.26 1011.53 1011.81 1012.09 1012.35 1012.58 1012.76 1012.91 1013.03
1018.41 1018.10 1017.75 1017.38 1017.00 1016.60 1016.21 1015.83 1015.47 1015.13 1014.80 1014.47 1014.12 1013.73 1013.29 1012.79 1012.23 1011.63 1011.01 1010.40 1009.83 1009.34 1008.94 1008.66 1008.50 1008.45 1008.50 1008.63 1008.83 1009.08 1009.38 1009.70 1010.06 1010.44 1010.84 1011.24 1011.63 1012.00 1012.33 1012.61 1012.83 1013.00 1013.13
1018.23 1017.92 1017.58 1017.22 1016.83 1016.43 1016.03 1015.65 1015.29 1014.94 1014.61 1014.29 1013.94 1013.56 1013.12 1012.62 1012.06 1011.44 1010.78 1010.12 1009.48 1008.90 1008.40 1008.00 1007.72 1007.56 1007.52 1007.59 1007.76 1008.03 1008.37 1008.78 1009.25 1009.76 1010.29 1010.83 1011.34 1011.82 1012.24 1012.59 1012.86 1013.07 1013.22
1018.00 1017.70 1017.35 1016.98 1016.57 1016.16 1015.73 1015.32 1014.93 1014.56 1014.21 1013.86 1013.51 1013.13 1012.71 1012.23 1011.69 1011.09 1010.44 1009.76 1009.09 1008.44 1007.86 1007.36 1006.97 1006.70 1006.57 1006.57 1006.71 1006.97 1007.35 1007.83 1008.40 1009.02 1009.68 1010.34 1010.97 1011.55 1012.06 1012.48 1012.82 1013.08 1013.27
1017.74 1017.43 1017.07 1016.68 1016.25 1015.80 1015.33 1014.87 1014.43 1014.01 1013.62 1013.25 1012.89 1012.51 1012.11 1011.66 1011.16 1010.60 1009.98 1009.32 1008.64 1007.97 1007.33 1006.75 1006.27 1005.92 1005.70 1005.63 1005.73 1005.98 1006.38 1006.91 1007.56 1008.27 1009.03 1009.79 1010.52 1011.20 1011.79 1012.28 1012.68 1013.00 1013.25
Thickness
5730 5729 5727 5725 5724 5722 5720 5719 5718 5718 5718 5718 5718 5719 5719 5721 5722 5723 5724 5726 5728 5730 5732 5735 5738 5740 5743 5745 5746 5748 5750 5752 5753 5754 5756 5758 5760 5760 5759 5759 5760 5760 5760
5728 5726 5724 5722 5720 5719 5717 5716 5715 5714 5713 5713 5714 5715 5715 5716 5717 5719 5720 5722 5724 5726 5729 5732 5735 5737 5740 5742 5744 5746 5749 5750 5751 5752 5753 5754 5756 5756 5756 5756 5757 5758 5758
5726 5723 5721 5719 5717 5716 5715 5714 5712 5711 5710 5709 5709 5710 5711 5712 5713 5714 5716 5718 5720 5723 5726 5729 5731 5734 5737 5739 5742 5745 5748 5749 5749 5750 5750 5751 5752 5752 5753 5754 5755 5755 5756
5724 5721 5719 5716 5715 5713 5712 5710 5708 5706 5704 5703 5704 5705 5706 5707 5709 5710 5712 5714 5717 5719 5723 5726 5728 5731 5734 5736 5739 5741 5744 5745 5746 5747 5748 5748 5749 5750 5750 5751 5752 5753 5753
5721 5719 5716 5714 5712 5710 5708 5706 5704 5701 5700 5699 5700 5701 5702 5703 5705 5707 5708 5711 5713 5716 5719 5722 5725 5728 5731 5733 5736 5738 5740 5741 5743 5744 5744 5745 5746 5747 5748 5748 5749 5750 5750
5719 5717 5714 5712 5710 5707 5704 5702 5700 5699 5697 5696 5697 5697 5698 5700 5701 5703 5705 5708 5710 5713 5716 5718 5721 5724 5728 5730 5732 5734 5736 5738 5739 5741 5742 5742 5743 5744 5745 5746 5746 5747 5747
5717 5715 5712 5709 5707 5703 5701 5699 5697 5695 5693 5693 5691 5689 5692 5696 5697 5699 5701 5703 5706 5709 5712 5715 5717 5720 5724 5726 5729 5731 5733 5735 5736 5738 5739 5740 5741 5741 5742 5743 5744 5744 5744
5715 5713 5710 5707 5704 5701 5699 5696 5694 5690 5689 5689 5685 5681 5679 5683 5690 5695 5697 5699 5702 5705 5708 5711 5713 5717 5720 5723 5725 5727 5729 5731 5733 5735 5736 5737 5738 5739 5739 5740 5741 5742 5742
5713 5711 5709 5706 5703 5700 5696 5694 5692 5688 5684 5684 5683 5678 5673 5671 5677 5686 5690 5694 5697 5700 5704 5707 5710 5713 5716 5719 5722 5724 5726 5728 5730 5732 5733 5734 5735 5736 5737 5738 5739 5739 5740
5712 5710 5708 5705 5702 5699 5696 5694 5691 5687 5684 5680 5680 5679 5677 5675 5672 5674 5682 5687 5691 5695 5698 5703 5706 5709 5712 5715 5718 5721 5723 5725 5727 5729 5730 5732 5732 5733 5735 5736 5737 5737 5738
5709 5708 5706 5703 5701 5698 5696 5693 5690 5687 5684 5680 5678 5676 5675 5673 5672 5670 5671 5678 5684 5689 5693 5697 5701 5705 5708 5711 5714 5717 5719 5721 5724 5726 5727 5729 5730 5731 5732 5733 5734 5735 5736
5706 5705 5704 5701 5699 5697 5695 5692 5690 5687 5684 5681 5678 5676 5673 5671 5670 5669 5668 5671 5675 5682 5689 5693 5697 5701 5704 5707 5710 5713 5715 5717 5719 5722 5724 5725 5726 5728 5729 5731 5732 5732 5733
5702 5702 5701 5699 5697 5696 5694 5692 5689 5686 5684 5681 5679 5677 5675 5673 5672 5670 5669 5669 5672 5677 5683 5689 5694 5697 5701 5704 5707 5709 5711 5713 5715 5718 5720 5721 5723 5724 5726 5727 5729 5730 5731
5700 5699 5698 5696 5695 5694 5692 5690 5688 5686 5684 5682 5680 5678 5676 5675 5674 5672 5670 5669 5668 5671 5676 5682 5689 5693 5697 5700 5703 5706 5707 5710 5712 5714 5716 5717 5719 5721 5722 5724 5725 5727 5728
5698 5696 5695 5693 5692 5690 5689 5688 5685 5684 5683 5681 5679 5678 5676 5676 5675 5674 5672 5671 5668 5665 5668 5676 5683 5690 5693 5696 5699 5701 5704 5706 5708 5710 5712 5713 5715 5716 5718 5719 5721 5722 5724
5694 5692 5691 5689 5688 5687 5686 5684 5683 5682 5680 5679 5678 5677 5676 5675 5675 5674 5673 5672 5671 5668 5667 5673 5679 5685 5689 5692 5694 5696 5699 5701 5704 5706 5707 5709 5711 5712 5714 5715 5717 5718 5719
5690 5688 5686 5684 5683 5682 5681 5680 5679 5679 5677 5677 5676 5675 5675 5675 5674 5673 5672 5671 5669 5668 5666 5670 5675 5680 5683 5686 5688 5691 5693 5695 5698 5701 5703 5704 5706 5708 5709 5711 5712 5713 5715
5684 5683 5681 5679 5677 5677 5676 5675 5675 5675 5674 5673 5673 5673 5672 5673 5672 5672 5670 5669 5669 5668 5667 5667 5671 5674 5677 5680 5683 5685 5688 5690 5692 5695 5697 5699 5701 5703 5704 5706 5707 5708 5709
5678 5676 5674 5672 5671 5670 5670 5670 5670 5671 5671 5670 5671 5670 5670 5669 5668 5669 5668 5668 5668 5668 5667 5666 5667 5670 5672 5675 5676 5679 5682 5684 5687 5689 5691 5693 5695 5697 5698 5700 5701 5702 5703
5671 5669 5667 5665 5664 5664 5664 5664 5664 5665 5665 5666 5667 5667 5667 5666 5666 5666 5666 5665 5665 5664 5664 5663 5663 5664 5666 5669 5671 5672 5673 5676 5679 5683 5685 5687 5688 5690 5692 5693 5694 5696 5697
5664 5662 5660 5658 5657 5656 5656 5656 5657 5658 5658 5659 5661 5662 5663 5664 5664 5663 5663 5662 5661 5660 5659 5659 5659 5659 5661 5662 5664 5667 5668 5669 5672 5675 5677 5679 5681 5682 5684 5686 5687 5689 5690
5656 5654 5651 5649 5648 5649 5649 5650 5650 5649 5650 5651 5653 5655 5657 5658 5659 5660 5660 5660 5659 5657 5656 5655 5656 5656 5658 5660 5661 5662 5662 5662 5663 5669 5670 5670 5673 5674 5677 5678 5680 5682 5683
5647 5645 5644 5642 5640 5640 5641 5642 5643 5642 5642 5643 5644 5646 5649 5651 5650 5651 5652 5654 5654 5655 5656 5655 5653 5654 5656 5658 5657 5657 5658 5659 5661 5664 5664 5663 5664 5666 5669 5671 5673 5674 5675
5639 5637 5635 5634 5632 5632 5633 5634 5635 5634 5634 5635 5636 5637 5638 5640 5641 5641 5642 5643 5644 5647 5649 5651 5652 5654 5655 5656 5656 5657 5656 5655 5656 5657 5659 5656 5657 5658 5661 5662 5664 5666 5667
5631 5629 5627 5625 5623 5622 5624 5624 5626 5624 5624 5625 5626 5627 5628 5629 5631 5632 5631 5631 5634 5637 5640 5643 5645 5648 5651 5652 5652 5650 5648 5647 5647 5650 5652 5652 5651 5650 5651 5653 5655 5657 5659
5622 5621 5619 5616 5613 5612 5613 5614 5614 5614 5613 5615 5616 5617 5618 5618 5619 5620 5618 5619 5621 5625 5628 5631 5635 5639 5643 5645 5647 5647 5647 5644 5643 5644 5646 5646 5644 5643 5642 5644 5646 5648 5650